TimeCST,TemperatureF,Dew PointF,Humidity,Sea Level PressureIn,VisibilityMPH,Wind Direction,Wind SpeedMPH,Gust SpeedMPH,PrecipitationIn,Events,Conditions,WindDirDegrees,DateUTC
12:53 AM,19.9,16.0,85,29.90,10.0,WNW,24.2,34.5,N/A,,Overcast,300,2012-12-10 06:53:00
1:53 AM,19.0,15.1,85,29.93,10.0,WNW,23.0,31.1,N/A,,Overcast,300,2012-12-10 07:53:00
2:53 AM,18.0,15.1,88,29.93,10.0,WNW,19.6,-,N/A,,Overcast,300,2012-12-10 08:53:00
3:53 AM,17.1,12.9,84,29.96,10.0,NW,21.9,32.2,N/A,,Overcast,310,2012-12-10 09:53:00
4:53 AM,16.0,10.9,81,29.95,10.0,WNW,20.7,-,N/A,,Overcast,300,2012-12-10 10:53:00
5:39 AM,15.8,10.4,79,29.91,10.0,NW,18.4,-,N/A,,Overcast,310,2012-12-10 11:39:00
5:53 AM,15.1,10.9,84,29.96,10.0,NW,17.3,-,N/A,,Overcast,310,2012-12-10 11:53:00
6:53 AM,16.0,10.9,81,29.97,10.0,WNW,15.0,-,N/A,,Overcast,300,2012-12-10 12:53:00
7:40 AM,14.0,10.4,86,29.94,10.0,WNW,16.1,-,N/A,,Overcast,300,2012-12-10 13:40:00
7:53 AM,14.0,10.0,84,29.99,10.0,WNW,13.8,-,N/A,,Overcast,300,2012-12-10 13:53:00
8:53 AM,16.0,10.9,81,30.01,10.0,WNW,13.8,-,N/A,,Overcast,300,2012-12-10 14:53:00
9:53 AM,18.0,12.0,78,30.01,10.0,WNW,16.1,-,N/A,,Overcast,290,2012-12-10 15:53:00
10:53 AM,19.0,14.0,81,30.01,10.0,WNW,12.7,-,N/A,,Overcast,290,2012-12-10 16:53:00
11:01 AM,19.4,14.0,80,29.96,10.0,NW,11.5,-,N/A,,Mostly Cloudy,310,2012-12-10 17:01:00
11:19 AM,19.4,14.0,80,29.96,10.0,WNW,11.5,-,N/A,,Mostly Cloudy,290,2012-12-10 17:19:00
11:53 AM,21.0,15.1,78,29.99,10.0,WNW,13.8,-,N/A,,Overcast,290,2012-12-10 17:53:00
12:53 PM,23.0,17.1,78,29.98,10.0,WNW,15.0,19.6,N/A,,Mostly Cloudy,290,2012-12-10 18:53:00
1:24 PM,24.8,17.6,74,29.93,10.0,WNW,13.8,-,N/A,,Mostly Cloudy,290,2012-12-10 19:24:00
1:29 PM,24.8,17.6,74,29.92,10.0,West,11.5,-,N/A,,Mostly Cloudy,280,2012-12-10 19:29:00
1:53 PM,25.0,18.0,75,29.96,10.0,WNW,13.8,-,N/A,,Clear,300,2012-12-10 19:53:00
2:53 PM,26.1,18.0,71,29.96,10.0,WNW,13.8,-,N/A,,Clear,290,2012-12-10 20:53:00
3:53 PM,25.0,17.1,72,29.96,10.0,NW,11.5,-,N/A,,Clear,310,2012-12-10 21:53:00
4:53 PM,21.0,16.0,81,29.98,10.0,WNW,6.9,-,N/A,,Clear,300,2012-12-10 22:53:00
5:53 PM,19.0,15.1,85,29.99,10.0,Calm,Calm,-,N/A,,Clear,0,2012-12-10 23:53:00
6:53 PM,19.0,15.1,85,29.99,10.0,Calm,Calm,-,N/A,,Clear,0,2012-12-11 00:53:00
7:53 PM,18.0,14.0,84,30.00,10.0,South,4.6,-,N/A,,Clear,180,2012-12-11 01:53:00
8:53 PM,15.1,10.9,84,30.00,10.0,South,4.6,-,N/A,,Clear,190,2012-12-11 02:53:00
9:53 PM,17.1,10.9,77,29.99,10.0,South,5.8,-,N/A,,Clear,170,2012-12-11 03:53:00
10:53 PM,15.1,10.0,80,29.99,10.0,South,4.6,-,N/A,,Clear,190,2012-12-11 04:53:00
11:53 PM,15.1,9.0,77,29.98,10.0,South,6.9,-,N/A,,Clear,170,2012-12-11 05:53:00